This is the latest recevied weather packets stored in our database for station/object KI5RAB. If no packets are shown the sender has not sent any weather packets the latest 10 day(s).
| Time | Temp. | Humidity | Pressure | Rain* | Wind** | Luminosity | Snow |
|---|---|---|---|---|---|---|---|
| 1777504329 | 28.33° C | 79% | 1011.9 hPa | 0 mm | - | 110 W/m² | - |
| 1777504023 | 28.33° C | 80% | 1011.7 hPa | 0 mm | - | 148 W/m² | - |
| 1777503721 | 28.33° C | 79% | 1011.7 hPa | 0 mm | - | 127 W/m² | - |
| 1777503418 | 28.33° C | 79% | 1011.9 hPa | 0 mm | - | 158 W/m² | - |
| 1777503113 | 28.33° C | 79% | 1012 hPa | 0 mm | - | 137 W/m² | - |
| 1777502811 | 28.33° C | 78% | 1012.1 hPa | 0 mm | - | 146 W/m² | - |
| 1777502508 | 28.89° C | 78% | 1012.1 hPa | 0 mm | - | 240 W/m² | - |
| 1777502205 | 28.89° C | 77% | 1012.2 hPa | 0 mm | - | 206 W/m² | - |
| 1777501902 | 28.89° C | 78% | 1012.2 hPa | 0 mm | - | 276 W/m² | - |
| 1777501599 | 28.89° C | 78% | 1012.2 hPa | 0 mm | - | 287 W/m² | - |
| 1777501296 | 28.89° C | 78% | 1012.3 hPa | 0 mm | - | 256 W/m² | - |
| 1777500994 | 28.33° C | 79% | 1012.4 hPa | 0 mm | - | 316 W/m² | - |
| 1777500692 | 28.33° C | 79% | 1012.1 hPa | 0 mm | - | 327 W/m² | - |
| 1777500388 | 27.78° C | 81% | 1012.3 hPa | 0 mm | - | 356 W/m² | - |
| 1777500084 | 27.22° C | 82% | 1012.5 hPa | 0 mm | - | 390 W/m² | - |
| 1777499781 | 27.78° C | 82% | 1012.5 hPa | 0 mm | - | 228 W/m² | - |
| 1777499477 | 26.67° C | 84% | 1012.4 hPa | 0 mm | - | 373 W/m² | - |
| 1777499176 | 26.67° C | 85% | 1012.7 hPa | 0 mm | - | 170 W/m² | - |
| 1777498872 | 26.67° C | 85% | 1012.7 hPa | 0 mm | - | 287 W/m² | - |
| 1777498569 | 27.22° C | 84% | 1012.6 hPa | 0 mm | - | 306 W/m² | - |
| 1777498264 | 27.22° C | 84% | 1012.7 hPa | 0 mm | - | 277 W/m² | - |
| 1777497964 | 26.67° C | 85% | 1013.2 hPa | 0 mm | - | 264 W/m² | - |
| 1777497659 | 27.22° C | 84% | 1013.1 hPa | 0 mm | - | 258 W/m² | - |
| 1777497356 | 27.22° C | 84% | 1013 hPa | 0 mm | - | 232 W/m² | - |
| 1777497051 | 27.22° C | 83% | 1013.2 hPa | 0 mm | - | 296 W/m² | - |
* Rain latest hour (hover to see other rain measurements)
** Current wind speed in m/s (hover to see current wind gust speed)